TimeEST,TemperatureF,Dew PointF,Humidity,Sea Level PressureIn,VisibilityMPH,Wind Direction,Wind SpeedMPH,Gust SpeedMPH,PrecipitationIn,Events,Conditions,WindDirDegrees,DateUTC
12:51 AM,30.0,12.0,47,30.42,10.0,East,6.9,-,N/A,,Clear,100,2011-12-25 05:51:00
1:51 AM,30.0,12.9,49,30.40,10.0,ESE,6.9,-,N/A,,Scattered Clouds,110,2011-12-25 06:51:00
2:51 AM,30.9,12.0,46,30.41,10.0,East,4.6,-,N/A,,Overcast,80,2011-12-25 07:51:00
3:51 AM,32.0,14.0,48,30.38,10.0,Calm,Calm,-,N/A,,Overcast,0,2011-12-25 08:51:00
4:51 AM,32.0,15.1,50,30.37,10.0,ESE,3.5,-,N/A,,Overcast,110,2011-12-25 09:51:00
5:51 AM,32.0,19.9,61,30.36,10.0,ENE,3.5,-,N/A,,Overcast,70,2011-12-25 10:51:00
6:51 AM,33.1,19.9,59,30.36,10.0,Calm,Calm,-,N/A,,Mostly Cloudy,0,2011-12-25 11:51:00
7:51 AM,34.0,18.0,52,30.35,10.0,Calm,Calm,-,N/A,,Mostly Cloudy,0,2011-12-25 12:51:00
8:51 AM,36.0,21.0,55,30.33,10.0,SSW,5.8,-,N/A,,Mostly Cloudy,200,2011-12-25 13:51:00
9:51 AM,37.9,19.9,48,30.32,10.0,SW,5.8,-,N/A,,Mostly Cloudy,220,2011-12-25 14:51:00
10:51 AM,39.9,21.9,49,30.27,10.0,South,11.5,-,N/A,,Mostly Cloudy,190,2011-12-25 15:51:00
11:51 AM,42.1,24.1,49,30.21,10.0,SW,11.5,19.6,N/A,,Mostly Cloudy,220,2011-12-25 16:51:00
12:51 PM,44.1,27.0,51,30.15,10.0,SW,13.8,-,N/A,,Mostly Cloudy,220,2011-12-25 17:51:00
1:51 PM,46.0,28.0,50,30.12,10.0,SSW,13.8,23.0,N/A,,Scattered Clouds,210,2011-12-25 18:51:00
2:51 PM,46.0,28.9,51,30.09,10.0,SW,9.2,-,N/A,,Scattered Clouds,220,2011-12-25 19:51:00
3:51 PM,46.0,28.0,50,30.07,10.0,SSW,12.7,20.7,N/A,,Mostly Cloudy,210,2011-12-25 20:51:00
4:51 PM,45.0,30.0,56,30.05,10.0,SW,9.2,-,N/A,,Mostly Cloudy,220,2011-12-25 21:51:00
5:51 PM,45.0,30.0,56,30.04,10.0,SW,9.2,-,N/A,,Mostly Cloudy,220,2011-12-25 22:51:00
6:51 PM,45.0,30.9,58,30.01,10.0,SSW,9.2,-,N/A,,Overcast,210,2011-12-25 23:51:00
7:51 PM,45.0,33.1,63,30.00,10.0,SW,9.2,-,N/A,,Overcast,220,2011-12-26 00:51:00
8:51 PM,44.1,32.0,63,29.97,10.0,SW,10.4,-,N/A,,Mostly Cloudy,230,2011-12-26 01:51:00
9:51 PM,43.0,30.9,62,29.95,10.0,SW,9.2,-,N/A,,Mostly Cloudy,230,2011-12-26 02:51:00
10:51 PM,43.0,30.0,60,29.93,10.0,WSW,10.4,-,N/A,,Overcast,240,2011-12-26 03:51:00
11:51 PM,43.0,30.0,60,29.90,10.0,WSW,12.7,18.4,N/A,,Overcast,240,2011-12-26 04:51:00